Juan de Fuca Strait - east entrance: Past 24 Hour Conditions

 

Halibut Bank - 46146

10:00 PM PDT 01 October 2014Buoy position: 49.34N 123.72W
This table is a summary of hourly weather conditions for the past 24 hours.
Date / Time
(PDT)
Wind(knots) Wave height(m) Wave period(s) Pressure(kPa) Air tempC) Water tempC)
01 October 2014
22:00 W 4 gust 4 0.2 3.0 102.2 N/A 14
21:00 W 2 gust 2 0.2 2.0 102.2 N/A 14
20:00 W 4 gust 6 0.1 3.0 102.1 N/A 14
19:00 N 2 gust 6 0.1 4.0 102.1 N/A 14
18:00 W 8 gust 10 0.1 2.0 102.1 N/A 14
17:00 W 8 gust 10 0.2 2.0 102.1 N/A 14
16:00 W 10 gust 10 0.2 2.0 102.1 N/A 14
15:00 W 10 gust 12 0.1 2.0 102.1 N/A 14
14:00 W 8 gust 10 0.2 2.0 102.2 N/A 14
13:00 W 8 gust 10 0.2 2.0 102.2 N/A 14
12:00 WNW 8 gust 10 0.2 3.0 102.2 N/A 14
11:00 WNW 6 gust 8 0.2 3.0 102.3 N/A 14
10:00 NW 6 gust 8 0.3 3.0 102.3 N/A 14
9:00 NW 8 gust 10 0.3 3.0 102.2 N/A 14
8:00 NNW 6 gust 8 0.3 3.0 102.2 N/A 13
7:00 NNW 6 gust 10 0.3 3.0 102.2 N/A 13
6:00 W 14 gust 16 0.4 3.0 102.1 N/A 13
5:00 W 16 gust 18 0.4 3.0 102.2 N/A 13
4:00 WNW 16 gust 16 0.4 3.0 102.1 N/A 13
3:00 W 16 gust 18 0.4 3.0 102.1 N/A 14
2:00 WNW 16 gust 18 0.5 3.0 102.1 N/A 14
1:00 WNW 16 gust 19 0.4 3.0 102.0 N/A 14
0:00 W 16 gust 18 0.5 3.0 102.0 N/A 14
30 September 2014
23:00 W 14 gust 16 0.4 3.0 102.0 N/A 15
22:00 W 12 gust 14 0.3 3.0 102.0 N/A 15
 
Map of Pacific - Georgia Basin marine weather areas Tsawwassen Ferry Terminal Sentry Shoal - 46131 Halibut Bank - 46146 La Perouse Bank - 46206 Discovery Island Esquimalt Harbour Kelp Reefs Malahat Race Rocks Lightstation Saturna Island Sheringham Point University of Victoria Victoria Gonzales Victoria Int'l Airport Ballenas Islands Campbell River Airport Comox Airport Entrance Island Fanny Island Nanaimo Airport Sisters Islets Estevan Point Tofino Airport Grief Point Powell River Airport Sechelt Point Atkinson Sand Heads Lightstation Vancouver Harbour Vancouver Int'l Airport West Vancouver Port Alberni Howe Sound - Pam Rocks Squamish Airport